Overview Statistics Trail Chart Weather Telemetry Raw packets
 

This is the latest recevied weather packets stored in our database for station/object KF6FPU-15. If no packets are shown the sender has not sent any weather packets the latest 10 day(s).

<< 5 6 7 8 9 10 11 >>
Time Temp. Humidity Pressure Rain* Wind** Luminosity Snow
1788565378 35° C 17% 1012.4 hPa - - - -
1788564778 35° C 17% 1012.5 hPa - - - -
1788564178 36.67° C 17% 1012.4 hPa - - - -
1788563578 38.33° C 17% 1012.4 hPa - - - -
1788562978 39.44° C 17% 1012.5 hPa - - - -
1788561778 40.56° C 17% 1012.7 hPa - - - -
1788561178 40.56° C 17% 1012.8 hPa - - - -
1788560578 42.22° C 17% 1012.9 hPa - - - -
1788559978 43.33° C 17% 1012.9 hPa - - - -
1788559378 43.33° C 17% 1013 hPa - - - -
1788558778 43.89° C 17% 1013.1 hPa - - - -
1788558178 43.89° C 17% 1013.1 hPa - - - -
1788557578 43.89° C 17% 1013.1 hPa - - - -
1788556978 43.33° C 17% 1013.1 hPa - - - -
1788556378 43.33° C 17% 1013.1 hPa - - - -
1788555178 43.33° C 17% 1013.3 hPa - - - -
1788554578 43.33° C 17% 1013.4 hPa - - - -
1788553978 42.78° C 17% 1013.4 hPa - - - -
1788553378 42.22° C 17% 1013.3 hPa - - - -
1788552778 41.67° C 17% 1013.3 hPa - - - -
1788552178 41.11° C 17% 1013.3 hPa - - - -
1788551578 40.56° C 17% 1013.5 hPa - - - -
1788550978 39.44° C 18% 1013.5 hPa - - - -
1788550378 38.89° C 17% 1013.6 hPa - - - -
1788549778 37.22° C 18% 1013.6 hPa - - - -

* Rain since midnight (hover to see other rain measurements)
** Current wind speed in m/s (hover to see current wind gust speed)